Regional Weather Roundup
Issued by NWS

Home | Current Version | Previous Version | Graphics & Text | Print | Product List | Glossary On
Versions: 1 2 3 4 5 6 7 8 9 10 11 12 13 14 15 16 17 18 19 20 21 22 23 24 25 26 27 28 29 30 31 32 33 34 35 36 37 38 39
000
ASUS45 KSLC 211010
RWRUT

UTAH REGIONAL WEATHER ROUNDUP
NATIONAL WEATHER SERVICE SALT LAKE CITY UT
400 AM MDT TUE OCT 21 2014

UTZ001>011-023>025-211100-

NORTHERN UTAH

CITY           SKY/WX    TMP DP  RH WIND       PRES   REMARKS
BRIGHAM CITY   MOCLDY    60  40  47 S7        29.84F
HILL AFB       MOCLDY    63  40  43 S14       29.88F
LOGAN          PTCLDY    46  39  76 CALM      29.86F
OGDEN          MOCLDY    64  40  41 S13       29.86F
PROVO AIRPORT  CLOUDY    61  39  44 SE14      29.93F
SALT LAKE CITY MOCLDY    62  40  44 SE12      29.88F
VERNAL         MOCLDY    45  37  73 W5        30.03F
WENDOVER       PTCLDY    55  37  50 SE5       29.83S
HEBER CITY     MOCLDY    50  39  66 CALM      29.98F
WEST JORDAN    CLEAR     59  46  63 SE7       29.91F

$$

UTZ012>022-026-027-211100-

SOUTHERN/CENTRAL UTAH

CITY           SKY/WX    TMP DP  RH WIND       PRES   REMARKS
BLANDING       MOCLDY    52  41  67 E6        30.19F
BRYCE CANYON   PTCLDY    34  31  88 W7        30.15F WCI  28
CEDAR CITY     CLOUDY    54  38  54 S6        30.02S
DELTA          MOCLDY    58  37  45 S14       29.94F
HANKSVILLE       N/A     46  36  66 CALM      30.02F
MILFORD        CLOUDY    54  38  54 SW12      29.97
MOAB/CYNLANDS  PTCLDY    61  41  47 E6        29.99F
PRICE          PTCLDY    49  36  61 E3        30.05F
ST GEORGE      PTSUNNY   66  39  37 CALM      29.93S
KANAB            N/A     48  36  61 N6        30.07F

$$

REGIONAL REPORTS     COLORADO/ARIZONA

CITY           SKY/WX    TMP DP  RH WIND       PRES   REMARKS
CRAIG, CO      CLOUDY    38  35  89 CALM      30.11F
GRAND JUNCTION PTCLDY    56  37  49 E14       30.04F
RIFLE          PTCLDY    45  37  73 SW5       30.09F
MONTROSE       CLOUDY    53  38  56 SE7       30.12F
CORTEZ         CLOUDY    55  42  61 CALM      30.14F
PAGE, AZ       NOT AVBL
GRAND CANYON   CLEAR     34  29  82 CALM      30.15F
KINGMAN        CLEAR     59  41  51 SE5       29.96S
FLAGSTAFF      CLEAR     37  33  85 CALM      30.17F

$$

REGIONAL REPORTS    NEVADA/IDAHO/WYOMING

CITY           SKY/WX    TMP DP  RH WIND       PRES   REMARKS
LAS VEGAS, NV  PTCLDY    72  39  30 S10       29.82S
ELY            CLEAR     55  35  47 S15G25    29.97R
ELKO           CLOUDY    53  33  46 W16       29.92R
POCATELLO, ID  LGT RAIN  67  36  31 S22G29    29.78F
BURLEY         LGT RAIN  55  39  54 W25G36    29.81R
EVANSTON, WY   PTCLDY    48  34  58 S7        30.04F
ROCK SPRINGS   CLEAR     50  34  54 SW9       30.04F
KEMMERER       CLEAR     39  32  75 SE3       30.05S

$$


USA.gov is the U.S. government's official web portal to all federal, state and local government web resources and services.